Location: Unspecified
(10.5000°N, 0.0000°E)
Time: 04:46:23
(UTC+00:00)

ISS - Pass Details

Date: 23 April 2019
Orbit: 407 x 410 km, 51.6° (Epoch: 21 May)

Event Time Altitude Azimuth Distance (km) Brightness Sun altitude
Exits shadow 04:17:49 26° 148° (SSE) 831 -2.2 -21.7°
Maximum altitude 04:18:28 29° 125° (SE) 782 -2.1 -21.5°
Drops below altitude 10° 04:21:22 10° 63° (ENE) 1,464 0.1 -20.8°
Sets 04:23:37 0° 51° (NE) 2,325 1.3 -20.3°
